Dewpoint
48 49 49 50 50 51 50 50 52 52 51 52 53 54 56 56 58 57 52 58 59 62 61 57 54 50 41 36 36 39 33 31 33 35 33 41 40 44 47 48 50 51 48 54 61
50 50 50 50 50 50 51 50 51 52 51 51 53 54 55 57 54 53 55 62 63 62 56 55 53 52 39 34 35 32 30 31 37 37 37 41 40 42 44 47 47 50 56 58 61
50 50 50 50 50 50 51 51 49 52 52 52 52 53 55 55 49 50 58 62 64 61 56 54 55 51 40 38 33 31 28 32 32 38 39 40 40 43 41 43 43 46 55 59 59
50 50 50 51 50 50 51 51 49 51 52 52 51 52 55 52 39 49 59 62 64 60 56 54 53 50 43 35 35 27 28 29 37 42 40 40 41 41 41 39 42 43 56 59 59
49 49 50 50 51 51 50 51 49 50 52 51 51 52 51 47 46 54 58 62 61 59 55 52 51 50 44 35 34 28 29 34 39 41 40 41 41 39 42 44 44 52 58 59 58
49 49 49 50 50 51 50 51 49 50 52 50 50 51 49 42 47 54 56 58 59 57 55 52 50 52 48 40 31 32 37 38 38 40 42 40 40 41 41 50 50 54 57 58 58
49 49 49 49 50 50 50 51 49 50 52 51 50 50 48 44 54 54 56 57 59 56 54 52 49 52 50 44 42 39 32 36 37 39 40 41 39 39 41 49 51 52 55 58 58
49 49 48 49 50 50 51 51 50 51 52 51 50 50 43 50 56 53 55 55 59 58 56 53 51 48 49 47 42 40 37 32 35 37 38 39 37 39 45 48 49 51 53 55 57
50 50 49 49 50 51 51 50 52 52 51 50 48 47 40 55 52 53 55 54 55 54 54 52 51 47 47 44 42 42 38 36 31 35 36 38 36 40 46 47 46 50 51 52 53
51 51 50 50 51 51 50 51 50 49 48 47 48 42 43 44 51 52 54 55 53 51 50 49 47 43 44 42 38 40 40 40 33 34 33 38 37 39 44 47 44 47 49 50 50
51 51 50 51 50 50 50 47 41 40 41 39 42 38 42 51 52 51 53 52 52 49 44 45 42 40 41 41 41 40 40 39 39 32 32 37 37 33 39 47 45 45 47 48 49
51 50 50 50 50 49 49 42 41 42 36 41 41 45 45 50 46 48 52 48 47 44 44 42 40 41 43 41 39 42 40 40 34 30 32 31 36 29 34 40 45 45 45 47 48
50 50 50 50 49 49 46 45 49 46 38 38 44 46 48 49 45 46 48 47 44 43 43 40 41 41 42 40 37 36 37 38 39 33 25 26 33 33 30 33 35 41 46 46 48
50 49 48 48 46 47 45 49 51 49 34 34 37 44 47 47 44 48 49 46 43 41 43 41 40 39 41 38 39 33 33 31 29 34 34 27 29 34 35 28 30 35 38 45 48
49 48 49 49 46 45 48 49 50 45 25 35 36 46 46 43 44 46 47 45 39 39 41 36 39 36 38 39 35 33 35 32 33 34 35 28 24 30 28 31 30 28 35 37 42
50 50 49 47 48 48 48 48 46 32 24 33 37 39 41 42 43 46 43 42 42 38 37 37 41 40 36 34 33 28 32 32 34 35 32 36 28 28 24 23 30 30 28 33 36
49 49 47 47 41 45 47 44 32 26 33 32 33 39 37 39 41 40 39 38 36 33 32 35 34 38 40 33 32 28 33 31 30 30 31 31 31 32 28 25 23 24 26 27 31
49 47 47 45 43 45 45 37 23 29 30 34 34 37 34 37 38 39 38 36 38 33 33 32 30 37 40 35 35 29 32 30 25 26 25 18 27 29 31 27 19 18 22 25 27
44 45 44 44 43 45 39 28 26 29 33 32 34 33 33 36 37 38 38 37 37 36 32 33 31 37 39 39 36 35 31 26 22 21 23 21 20 20 23 20 22 23 23 25 29
40 39 39 42 42 41 35 28 31 35 34 33 32 35 32 33 35 35 36 38 37 37 35 31 30 35 38 40 38 35 33 29 31 24 23 17 18 19 21 21 21 22 26 25 31
37 37 39 40 41 38 30 30 32 35 36 33 32 33 35 34 34 34 35 37 38 36 34 33 31 32 35 34 35 32 35 35 33 28 24 19 18 19 22 22 21 20 28 28 31
38 33 40 41 34 31 31 33 35 32 34 35 35 34 34 35 34 34 34 37 38 37 35 35 35 31 33 36 35 35 33 34 30 29 20 23 23 14 13 16 19 20 26 29 32
35 36 39 37 32 31 33 32 34 33 34 32 32 35 35 34 33 34 35 39 38 38 36 36 33 29 31 34 34 34 34 33 26 26 24 27 24 10 18 23 25 24 24 31 33
35 32 34 35 31 30 27 29 31 31 34 34 33 34 33 33 36 34 35 38 40 39 40 38 34 29 23 25 30 32 34 34 31 34 26 26 24 12 14 21 23 23 26 30 33
33 27 28 28 30 30 29 30 29 30 32 31 28 33 30 30 31 32 36 36 38 40 38 37 32 27 26 27 29 30 31 34 34 33 30 29 25 11 10 15 21 25 26 27 29
33 31 30 29 28 28 27 28 30 30 32 30 31 32 30 29 30 32 34 35 35 38 37 37 31 33 29 27 26 27 29 31 35 36 34 21 24 20 17 18 21 24 28 27 27
34 32 32 27 27 26 28 28 28 31 32 33 33 32 32 35 36 35 38 38 38 37 36 35 32 32 29 25 27 27 27 27 25 28 32 30 26 25 21 19 19 21 26 28 29
Lifted_Index
12 12 12 12 11 11 11 11 11 11 11 11 9 8 7 7 5 4 4 2 1 2 2 2 1 1 2 4 6 5 4 4 3 3 3 3 2 2 2 3 3 3 3 2 2
12 12 12 12 11 11 11 11 11 11 11 11 10 8 7 7 6 5 4 2 1 2 2 2 1 1 1 3 4 4 4 4 3 3 2 2 2 2 2 3 3 3 2 2 2
12 12 12 12 12 12 12 12 12 11 10 10 10 9 7 7 7 6 4 2 1 1 2 2 1 1 1 1 3 3 3 3 3 3 2 2 2 2 2 3 3 3 2 2 2
12 12 12 12 12 12 12 11 10 9 7 7 7 7 7 7 7 6 3 1 1 1 2 2 2 1 1 1 1 2 2 3 3 3 3 2 2 2 2 3 3 3 2 2 2
12 12 12 12 12 11 10 9 6 4 3 2 3 3 5 7 7 5 3 1 1 1 2 2 2 2 1 1 1 1 1 2 3 3 3 2 2 2 2 3 3 2 1 1 2
12 12 12 12 11 10 8 5 2 1 -0 -0 -0 0 3 6 7 5 3 2 1 2 2 3 2 2 2 2 2 2 1 1 2 3 3 2 2 2 2 3 2 2 1 1 1
12 12 12 12 11 8 4 2 1 0 -0 -0 -1 -1 1 4 5 5 3 2 1 1 2 3 3 2 2 2 2 2 1 1 2 3 3 2 1 2 2 2 2 1 1 1 1
12 12 12 11 9 5 2 1 0 0 -0 0 -0 -0 1 2 3 4 3 2 1 1 2 3 3 3 2 2 2 2 1 1 1 2 3 2 1 1 2 2 1 1 1 1 1
11 12 11 10 6 2 1 1 1 1 1 1 0 1 1 1 2 3 3 2 1 1 1 2 3 3 2 2 2 1 1 1 2 2 3 2 1 1 1 1 1 1 1 1 1
11 11 10 7 4 2 1 2 2 2 2 1 1 1 2 2 2 2 2 2 2 1 2 2 3 3 3 2 1 1 1 2 2 2 3 2 1 1 1 1 1 1 1 1 1
10 10 8 5 2 2 2 2 3 2 2 1 1 2 2 2 2 2 2 2 2 1 2 2 3 3 3 2 2 2 1 1 1 2 2 2 1 1 0 1 1 1 1 1 1
10 10 7 4 2 2 3 3 3 3 2 2 2 2 2 2 1 1 2 2 2 1 1 2 2 3 3 2 2 2 1 1 1 2 2 2 1 1 1 0 1 1 1 1 1
10 9 7 4 3 3 3 3 4 3 2 2 2 2 2 2 2 1 1 2 2 1 1 2 2 2 2 2 2 2 1 1 1 1 2 2 1 1 1 1 1 1 0 1 1
10 9 7 5 4 4 4 4 4 3 2 2 2 2 2 2 1 1 1 1 1 1 1 1 2 2 2 2 2 1 1 1 1 1 1 1 1 2 2 1 1 1 1 1 1
10 9 7 6 5 4 4 5 4 3 2 1 2 2 2 1 1 1 1 1 1 0 0 1 1 2 2 2 2 2 1 1 1 0 1 1 1 2 2 2 1 1 1 1 1
10 9 7 6 6 5 5 5 4 2 2 2 2 2 2 1 1 2 2 2 1 1 0 1 1 2 2 2 3 3 2 1 1 0 1 1 1 2 3 3 2 1 2 2 3
10 9 7 7 7 6 6 4 3 2 2 2 2 1 1 1 1 2 2 2 2 1 0 1 1 2 2 3 3 3 2 1 0 0 1 2 2 3 4 4 3 3 3 3 4
10 9 7 7 7 7 6 4 2 2 2 2 2 1 1 1 2 2 2 2 2 1 1 1 1 2 3 3 3 3 2 1 1 1 2 2 3 4 5 5 5 4 4 4 4
11 9 7 7 8 7 5 3 2 2 3 3 2 1 1 1 2 2 2 2 2 2 1 1 2 3 3 3 3 3 3 2 1 1 2 2 4 5 5 5 6 5 5 5 5
11 10 8 7 7 6 5 3 3 3 3 3 2 1 1 1 2 2 3 3 2 2 2 2 2 3 4 4 4 3 3 3 2 1 1 2 3 4 5 5 5 5 5 5 5
10 10 8 7 7 6 5 4 4 4 4 3 2 2 1 1 1 2 2 3 3 2 2 2 2 3 3 4 4 4 4 3 3 2 1 2 3 4 5 5 5 5 5 5 5
11 10 8 7 6 6 5 5 5 5 4 3 3 2 2 1 1 1 2 2 2 2 2 2 2 2 3 4 4 4 4 4 3 2 2 2 3 4 5 5 5 5 5 4 4
11 10 9 7 6 5 5 5 5 5 5 4 3 3 2 2 1 2 2 2 2 2 2 2 2 2 2 3 4 4 4 4 3 3 2 2 3 4 5 5 5 5 5 5 4
11 10 9 7 5 5 5 5 5 5 5 5 4 3 3 2 2 2 2 2 2 2 2 2 2 2 2 2 3 3 3 4 3 3 3 2 3 3 4 5 5 5 5 5 4
10 10 9 7 6 5 5 5 5 5 5 5 5 4 3 3 2 2 2 3 3 3 3 2 2 2 2 2 2 2 2 3 3 3 3 3 3 3 3 4 4 5 5 5 5
10 10 9 7 6 5 5 5 5 5 5 5 5 4 4 3 3 3 3 3 3 3 3 2 2 2 2 2 2 2 2 2 3 3 3 3 3 3 4 4 4 4 5 5 6
10 10 9 8 6 5 5 5 5 5 5 5 5 5 4 4 4 4 4 3 3 3 3 2 2 2 2 2 2 2 2 2 3 3 3 3 3 3 4 4 4 4 5 6 7